DateTimeUTC,F1_A11,F1_S11,BsB_S11,BsG_S11,BsR_S11,BbsB_S11,BbsG_S11,BbsR_S11,BaB_A11,BaG_A11,BaR_A11,Tu_S11,T_S11,Uu_S11,U_S11,P_S11,T1_A11
2021-10-12T10:00:00Z,00000200,21000000,,,,,,,0000.27,0000.18,-000.22,16.5,23.9,,00.0,0670.6,30.9
2021-10-12T10:01:00Z,00000200,21000000,,,,,,,-000.24,-000.54,-000.21,16.5,23.9,,00.0,0670.6,30.9
2021-10-12T10:02:00Z,00000200,21000000,,,,,,,-000.42,0000.08,0000.17,16.5,23.9,,00.0,0670.6,30.9
2021-10-12T10:03:00Z,00000200,61000000,,,,,,,0000.13,0000.33,0000.03,16.6,23.9,,00.0,0670.6,30.9
2021-10-12T10:04:00Z,00000200,41000000,0001.04,-000.00,0000.52,0000.11,0000.21,0000.38,0000.15,0000.08,0000.18,17.0,23.8,,00.0,0671.5,30.9
2021-10-12T10:05:00Z,00000200,01000000,0000.30,0000.12,0000.16,0000.52,0000.06,0000.81,0000.73,0000.40,0000.44,17.1,23.8,,00.0,0671.6,30.9
2021-10-12T10:06:00Z,00000200,01000000,0000.45,0000.01,0000.22,0000.21,0000.02,0000.08,0000.10,0000.23,0000.03,17.2,23.8,,00.0,0671.6,30.9
2021-10-12T10:07:00Z,00000200,01000000,0000.23,0000.01,0000.55,0000.52,0000.09,0000.20,0000.58,0000.45,0000.25,17.2,23.8,,00.0,0671.6,30.9
2021-10-12T10:08:00Z,00000200,01000000,0000.12,0000.16,0000.13,-000.52,-000.02,0000.35,0000.14,0000.37,0000.32,17.2,23.8,,00.0,0671.6,30.9
2021-10-12T10:09:00Z,00000200,01000000,0000.30,0000.28,0000.20,-000.42,0000.02,0000.43,-000.06,-000.03,-000.39,17.1,23.8,,00.0,0671.6,30.9
2021-10-12T10:10:00Z,00000200,01000000,0000.29,0000.05,0000.49,0000.36,0000.05,-000.02,0000.35,-000.13,0000.36,17.1,23.7,,00.0,0671.6,30.9
2021-10-12T10:11:00Z,00000200,01000000,0000.37,0000.41,0000.23,0000.39,0000.15,0000.35,0000.03,0000.18,-000.17,17.0,23.7,,00.0,0671.6,30.9
2021-10-12T10:12:00Z,00000200,01000000,0000.12,-000.13,0000.22,-000.16,-000.24,0000.15,0000.65,0000.52,0000.20,16.9,23.6,,00.0,0671.6,30.9
2021-10-12T10:13:00Z,00000200,01000000,0000.70,0000.42,0000.13,-000.04,0000.03,0000.33,0000.02,0000.26,0000.58,16.9,23.6,,00.0,0671.6,30.9
2021-10-12T10:14:00Z,00000200,01000000,0000.80,0000.71,0000.29,-000.08,0000.40,0000.23,0000.31,-000.03,-000.29,16.9,23.6,,00.0,0671.6,30.9
2021-10-12T10:15:00Z,00000200,01000000,0000.58,0000.36,0000.55,0000.01,0000.13,0000.32,0000.23,0000.17,0000.44,16.9,23.6,,00.0,0671.6,30.9
2021-10-12T10:16:00Z,00000200,01000000,0000.65,0000.08,-000.13,-000.28,0000.06,-000.07,0000.10,0000.35,0000.09,17.0,23.6,,00.0,0671.6,30.9
2021-10-12T10:17:00Z,00000200,01000000,0000.43,0000.07,0000.06,-000.07,-000.01,0000.49,-000.02,-000.35,-000.27,17.0,23.6,,00.0,0671.6,30.9
2021-10-12T10:18:00Z,00000200,01000000,0000.30,-000.15,0000.15,0000.11,-000.29,0000.10,-000.30,0000.30,0000.22,17.1,23.6,,00.0,0671.7,30.9
2021-10-12T10:19:00Z,00000200,01000000,0000.68,0000.48,0000.37,0000.43,-000.09,0000.42,0000.00,-000.26,0000.26,17.1,23.7,,00.0,0671.7,30.9
2021-10-12T10:20:00Z,00000200,01000000,0000.96,0000.68,0000.43,0000.13,-000.15,0000.45,0000.29,0000.24,-000.41,17.2,23.7,,00.0,0671.7,30.9
2021-10-12T10:21:00Z,00000200,01000000,0000.73,0000.68,0000.29,0000.41,-000.08,0000.29,-000.03,-000.13,0000.22,17.2,23.7,,00.0,0671.7,30.9
2021-10-12T10:22:00Z,00000200,01000000,0001.23,0000.48,0000.39,-000.32,0000.02,0000.19,0000.22,0000.05,-000.21,17.3,23.7,,00.0,0671.7,30.9
2021-10-12T10:23:00Z,00000200,01000000,0001.19,0000.70,0000.33,0000.11,-000.07,0000.28,0000.04,0000.59,0000.24,17.3,23.8,,00.0,0671.7,30.9
2021-10-12T10:24:00Z,00000200,01000000,0000.21,0000.48,0000.56,0000.39,-000.36,0000.28,0000.54,-000.13,0000.29,17.3,23.8,,00.0,0671.7,30.9
2021-10-12T10:25:00Z,00000200,01000000,0001.24,0000.02,-000.02,-000.15,-000.15,-000.02,0000.24,0000.29,0000.03,17.2,23.7,,00.0,0671.7,30.9
2021-10-12T10:26:00Z,00000200,01000000,0000.95,0000.37,-000.02,-000.13,0000.07,0000.24,-000.38,-000.42,-000.32,17.1,23.7,,00.0,0671.7,30.9
2021-10-12T10:27:00Z,00000200,01000000,0000.79,0000.27,0000.18,0000.23,-000.17,-000.04,0000.39,0000.49,0000.09,17.0,23.7,,00.0,0671.6,30.9
2021-10-12T10:28:00Z,00000200,01000000,0000.78,0000.66,0000.22,-000.08,0000.02,0000.25,-000.11,0000.03,0000.55,17.0,23.6,,00.0,0671.6,30.9
2021-10-12T10:29:00Z,00000200,01000000,0000.73,0000.28,0000.19,0000.25,-000.08,-000.09,0000.23,0000.21,-000.02,17.0,23.6,,00.0,0671.6,30.9
2021-10-12T10:30:00Z,00000200,01000000,0000.78,0000.73,0000.86,0000.05,-000.00,0000.30,0000.40,0000.36,0000.31,17.0,23.6,,00.0,0671.5,30.9
2021-10-12T10:31:00Z,00000200,01000000,0000.32,0000.48,0000.49,0000.28,0000.08,0000.19,0000.58,0000.42,0000.35,17.1,23.7,,00.0,0671.5,30.9
2021-10-12T10:32:00Z,00000200,01000000,0001.49,0000.63,0000.71,0000.23,-000.15,0000.49,0000.58,0000.61,0000.23,17.2,23.7,,00.0,0671.5,30.9
2021-10-12T10:33:00Z,00000200,01000000,0002.67,0000.81,0000.53,0000.76,0000.03,0000.14,0000.65,0000.66,0000.64,17.2,23.7,,00.0,0671.5,30.9
2021-10-12T10:34:00Z,00000200,01000000,0001.29,0001.05,0001.12,-000.07,-000.28,0000.40,0000.61,0000.68,0000.47,17.3,23.7,,00.0,0671.5,30.9
2021-10-12T10:35:00Z,00000200,01000000,0002.29,0001.44,0001.00,-000.36,0000.50,0000.21,0000.74,0000.38,0000.21,17.3,23.7,,00.0,0671.5,30.9
2021-10-12T10:36:00Z,00000200,01000000,0002.25,0001.41,0001.05,0000.44,0000.28,0000.43,0000.15,-000.10,0000.08,17.3,23.8,,00.0,0671.5,30.9
2021-10-12T10:37:00Z,00000200,01000000,0002.98,0001.92,0001.03,0000.18,-000.01,0000.61,0000.26,0000.57,0000.32,17.3,23.8,,00.0,0671.5,30.9
2021-10-12T10:38:00Z,00000200,01000000,0002.81,0001.82,0001.27,-000.29,-000.01,0000.46,0000.19,0000.31,-000.18,17.2,23.8,,00.0,0671.5,30.9
2021-10-12T10:39:00Z,00000200,01000000,0002.86,0001.50,0001.38,-000.53,0000.19,0000.43,0000.16,-000.25,0000.22,17.2,23.7,,00.0,0671.5,30.9
2021-10-12T10:40:00Z,00000200,01000000,0002.31,0001.81,0001.17,0000.22,0000.16,-000.12,0000.40,0000.39,0000.13,17.1,23.7,,00.0,0671.5,30.9
2021-10-12T10:41:00Z,00000200,01000000,0002.82,0001.91,0001.29,0000.31,0000.33,0000.50,0000.39,0000.26,0000.31,17.0,23.7,,00.0,0671.5,30.9
2021-10-12T10:42:00Z,00000200,01000000,0003.42,0001.65,0001.14,-000.08,0000.25,0000.35,0000.59,0000.70,0000.31,17.0,23.6,,00.0,0671.5,30.9
2021-10-12T10:43:00Z,00000200,01000000,0003.03,0001.36,0001.11,0000.55,0000.24,0000.40,0000.71,0000.73,0000.42,16.9,23.6,,00.0,0671.5,30.9
2021-10-12T10:44:00Z,00000200,01000000,0003.55,0002.01,0001.02,0000.76,0000.09,0000.22,0000.61,0000.41,0000.65,17.0,23.6,,00.0,0671.5,30.9
2021-10-12T10:45:00Z,00000200,01000000,0003.31,0001.95,0001.26,0000.45,0000.07,0000.38,0000.66,0000.67,0000.44,17.0,23.5,,00.0,0671.4,30.9
2021-10-12T10:46:00Z,00000200,01000000,0003.32,0002.02,0001.09,0000.24,0000.06,0000.08,0000.47,0000.28,0000.49,17.0,23.6,,00.0,0671.4,30.9
2021-10-12T10:47:00Z,00000200,01000000,0003.81,0002.22,0000.99,-000.50,-000.12,0000.36,0001.11,0001.03,0000.33,17.1,23.6,,00.0,0671.4,30.9
2021-10-12T10:48:00Z,00000200,01000000,0002.71,0001.78,0001.27,0000.55,0000.00,0000.48,0000.28,0000.38,0000.47,17.1,23.6,,00.0,0671.4,30.9
2021-10-12T10:49:00Z,00000200,01000000,0002.99,0002.12,0001.52,0000.37,-000.02,0000.28,0000.54,0000.43,0000.31,17.2,23.7,,00.0,0671.5,30.9
2021-10-12T10:50:00Z,00000200,01000000,0002.96,0002.05,0001.37,0000.69,-000.07,0000.10,0000.52,0000.52,0000.27,17.3,23.7,,00.0,0671.5,30.9
2021-10-12T10:51:00Z,00000200,01000000,0002.94,0001.97,0001.14,0000.15,0000.17,0000.38,0000.47,0000.54,0000.43,17.3,23.7,,00.0,0671.5,30.9
2021-10-12T10:52:00Z,00000200,01000000,0003.08,0001.36,0001.30,0000.92,0000.09,0000.35,0000.40,0000.14,0000.57,17.4,23.7,,00.0,0671.5,30.9
2021-10-12T10:53:00Z,00000200,01000000,0002.60,0001.95,0001.65,-000.61,0000.11,0000.34,0000.45,0000.67,0000.18,17.4,23.8,,00.0,0671.5,30.9
2021-10-12T10:54:00Z,00000200,01000000,0003.99,0001.58,0001.24,0000.26,-000.12,0000.54,0000.47,-000.11,-000.09,17.4,23.8,,00.0,0671.5,31.0
2021-10-12T10:55:00Z,00000200,01000000,0002.47,0001.75,0001.22,0000.59,0000.10,0000.08,0000.41,0000.73,0000.05,17.3,23.8,,00.0,0671.5,30.9
2021-10-12T10:56:00Z,00000200,01000000,0002.95,0001.89,0001.33,0000.78,-000.18,0000.31,0000.38,0000.34,0000.62,17.3,23.7,,00.0,0671.5,30.9
2021-10-12T10:57:00Z,00000200,41000000,,,,,,,-000.46,-000.53,-000.37,17.3,23.8,,00.0,0671.5,30.9
2021-10-12T10:58:00Z,00000200,61000000,,,,,,,0000.42,0000.52,0000.30,16.8,23.9,,00.0,0670.5,30.9
2021-10-12T10:59:00Z,00000200,21000000,,,,,,,0000.25,0000.19,0000.19,16.8,24.0,,00.0,0670.5,30.9
